Regional Weather Roundup
Issued by NWS

Home | Current Version | Previous Version | Graphics & Text | Print | Product List | Glossary On
Versions: 1 2 3 4 5 6 7 8 9 10 11 12 13 14 15 16 17 18 19 20 21 22 23 24 25 26 27 28 29 30 31 32 33 34 35 36 37 38 39 40 41 42 43 44 45 46 47 48 49 50
000
ASUS43 KDTX 290201
RWRMI
MICHIGAN HOURLY REGIONAL WEATHER ROUNDUP
NATIONAL WEATHER SERVICE DETROIT/PONTIAC MI
1000 PM EDT SUN MAY 28 2017

NOTE: "FAIR" INDICATES FEW OR NO CLOUDS BELOW 12,000 FEET WITH NO
SIGNIFICANT WEATHER AND/OR OBSTRUCTION TO VISIBILITY.

MIZ047>049-052>055-059>063-066>070-074>076-081>083-290300-
SOUTHEAST LOWER MICHIGAN

CITY           SKY/WX    TMP DP  RH WIND       PRES   REMARKS
ADRIAN         CLOUDY    64  63  96 CALM      29.73R
ALMA           CLEAR     64  55  71 W6        29.70S
ANN ARBOR      TSTM      61  61 100 CALM      29.71R
BAD AXE        RAIN      62  59  89 S9        29.68S
CARO           CLOUDY    65  63  93 S8G17     29.67R
DETROIT CITY   MOCLDY    63  58  83 SW8       29.69S
DETROIT        TSTM      62  59  90 W7        29.72R
FLINT          CLOUDY    65  62  90 S12       29.69R
GROSSE ILE     CLOUDY    61  59  92 S8        29.69F
HILLSDALE      CLOUDY    63  57  82 W8        29.73R
HOWELL         CLOUDY    64  60  87 SW3       29.70S

CITY           SKY/WX    TMP DP  RH WIND       PRES   REMARKS
JACKSON        CLOUDY    67  57  70 W8        29.72R
LAMBERTVILLE   RAIN      63  61  95 CALM      29.72R
LANSING        CLEAR     68  54  60 W9        29.71R
LAPEER         RAIN      64  63  95 CALM      29.70R
MASON          PTCLDY    67  58  71 W7        29.71R
MONROE         LGT RAIN  63  59  87 CALM      29.71R
MT. CLEMENS    CLOUDY    63  63 100 CALM      29.67R
PONTIAC        TSTM      61  58  90 SW8       29.68S
PORT HOPE        N/A     57  54  89 NE12      29.67R
PORT HURON     CLOUDY    61  59  94 CALM      29.69R
TRI CITIES     CLEAR     68  57  68 W6        29.68R
MIDLAND        FAIR      68  54  60 W6        29.67S
TROY           LGT RAIN  64  58  79 SW9       29.72R
SAGINAW HB     PTCLDY    70  54  56 NW8       29.67R
$$
MIZ043>046-050>051-056>058-064>065-071>073-077>080-290300-
SOUTHWEST LOWER MICHIGAN

CITY           SKY/WX    TMP DP  RH WIND       PRES   REMARKS
BATTLE CREEK   CLEAR     63  55  75 W10       29.75R
BENTON HARBOR  PTCLDY    61  56  83 SW3       29.75S
BIG RAPIDS     CLEAR     58  51  76 CALM      29.71S
COLDWATER      CLEAR     64  58  81 W8        29.75R
FREMONT        FAIR      60  53  78 CALM      29.71S
HOLLAND        CLEAR     60  55  83 SW6       29.74S
GRAND RAPIDS   PTCLDY    61  54  77 SW5       29.73R
IONIA          FAIR      65  53  63 W12       29.72R
KALAMAZOO      CLEAR     62  52  69 W3        29.77R
LUDINGTON      CLEAR     61  55  82 S6        29.68S
MARSHALL       CLEAR     64  56  75 W10G16    29.74R
MOUNT PLEASANT CLEAR     65  55  69 W3        29.70R
MUSKEGON       PTCLDY    57  54  89 S5        29.72S
SOUTH HAVEN    CLEAR     60  57  92 CALM      29.75S
$$
MIZ016>042-290300-
NORTHERN LOWER MICHIGAN

CITY           SKY/WX    TMP DP  RH WIND       PRES   REMARKS
ALPENA         MOCLDY    58  57  97 CALM      29.68F
BEAVER ISLAND  LGT RAIN  51  51  99 CALM      29.69R
BELLAIRE       CLEAR     56  54  94 CALM      29.67F FOG
CADILLAC       CLEAR     56  54  92 SW5       29.70S
CHARLEVOIX     CLEAR     56  55  98 CALM      29.70S
FRANKFORT      PTCLDY    58  53  85 CALM      29.66S
GAYLORD        CLEAR     60  53  77 CALM      29.69F
GRAYLING       CLEAR     57  54  89 W5        29.70S
HARBOR SPRINGS MOCLDY    55  55  99 CALM      29.68F
HOUGHTON LAKE  CLEAR     63  55  75 W3        29.70S
MANISTEE       CLEAR     61  56  83 CALM      29.67F
OSCODA         PTCLDY    58  56  93 N3        29.68F
PELLSTON       CLEAR     56  54  93 SW3       29.68F
ROGERS CITY    PTCLDY    55  54  96 CALM      29.69S
TRAVERSE CITY  PTCLDY    58  55  90 CALM      29.66S
$$
MIZ007>008-015-290300-
EASTERN UPPER MICHIGAN

CITY           SKY/WX    TMP DP  RH WIND       PRES   REMARKS
KINROSS        FOG       53  52  96 SE6       29.68F VSB 1/2
MACKINAC ISLAN CLEAR     54  54 100 SE7       29.66F
NEWBERRY       FOG       53  52  97 S8        29.66S VSB 3/4
S. S. MARIE    CLOUDY    58  56  93 SE6       29.65F FOG
MUNISING         N/A     55  53  93 SW8       29.61F
$$
MIZ004>006-011>014-085-290300-
CENTRAL UPPER MICHIGAN

CITY           SKY/WX    TMP DP  RH WIND       PRES   REMARKS
MANISTIQUE     FOG       51  48  90 S6        29.66F VSB 3/4
ESCANABA       CLOUDY    53  52  96 SE5       29.66R
SAWYER-GWINN   PTCLDY    52  52 100 SW5       29.65S
$$
MIZ001>003-009>011-084-290300-
WESTERN UPPER MICHIGAN

CITY           SKY/WX    TMP DP  RH WIND       PRES   REMARKS
IRON MOUNTAIN  CLEAR     53  51  93 SE5       29.63F
HOUGHTON       PTCLDY    54  50  86 W3        29.61F
COPPER HARBOR    N/A     53  49  86 NW5       29.62F
IRONWOOD       PTCLDY    51  50  96 CALM      29.65F
$$

ABBREVIATIONS USED IN REMARKS
   TC - TEMPERATURE IN CELSIUS
  WCI - WIND CHILL INDEX
   HX - HEAT INDEX
  VSB - VISIBILITY





USA.gov is the U.S. government's official web portal to all federal, state and local government web resources and services.